Location: Almi
(15.0332°N, 2.8511°W)
Time: 20:50:03
(UTC+00:00)

Daily predictions for brighter satellites

Satellite Brightness Start Highest point End
(mag) Time Altitude Azimuth Time Altitude Azimuth Time Altitude Azimuth
GPS 2-15 Rocket1 3.1 17:55:09 10° WSW 17:59:48 89° SSE 18:04:27 10° ENE
Cosmos 841 Rocket 3.5 17:55:29 10° S 18:00:39 68° ESE 18:05:46 10° NNE
CZ-2C R/B 4.5 17:57:32 10° S 18:02:35 44° W 18:07:22 10° NNW
Cosmos 1812 3.6 18:01:46 10° SSE 18:05:05 28° E 18:08:25 10° NNE
Cosmos 1408 Rocket 3.7 18:01:13 10° N 18:05:35 80° W 18:09:58 10° S
CZ-4B DEB 4.2 18:00:10 10° SSE 18:05:39 65° ENE 18:11:06 10° N
CZ-4C R/B 3.5 18:03:50 10° NNE 18:06:53 37° E 18:10:01 10° S
Cosmos 2082 Rocket 2.2 18:03:48 10° S 18:09:29 75° ESE 18:15:09 10° NNE
ATLAS 5 CENTAUR R/B 3.1 17:52:17 10° WSW 18:09:41 54° S 18:14:14 10° E
Atlas Centaur 2 2.6 18:07:08 10° NNW 18:09:46 19° NNE 18:12:23 11° ENE
Cosmos 1743 Rocket 3.7 18:05:54 10° N 18:10:04 49° E 18:14:15 10° SSE
AQUARIUS 4.3 18:06:15 10° S 18:10:43 82° WSW 18:15:12 10° NNW
Cosmos 1151 Rocket 3.5 18:10:24 10° SSE 18:14:20 37° E 18:18:18 10° NNE
COSMOS 2406 4.2 18:09:25 10° SSW 18:14:57 49° WNW 18:20:30 10° N
CZ-2C R/B 1.5 18:10:49 10° SW 18:14:58 60° SE 18:18:26 13° ENE
Cosmos 1697 Rocket 4.3 18:13:23 10° NE 18:15:18 12° ENE 18:17:13 10° E
Lacrosse 5 2.2 18:10:39 10° NNW 18:15:29 44° ENE 18:20:18 10° SE
BREEZE-M DEB (TANK) 3.7 18:13:04 10° SSW 18:18:21 30° SE 18:20:42 14° E
GPS 2-14 Rocket1 2.8 18:16:24 10° WNW 18:20:14 58° NNE 18:23:32 14° E
Cosmos 1340 Rocket 2.8 18:16:57 10° N 18:21:00 81° E 18:25:04 10° S
Cosmos 1656 4.2 18:16:17 10° N 18:21:20 35° ENE 18:26:25 10° SE
PAYLOAD B 4.2 18:15:52 10° SSE 18:21:26 71° ENE 18:27:00 10° N
Nadezhda 4 Rocket 4.4 18:15:18 10° N 18:21:35 72° W 18:27:52 10° S
CZ-2D R/B 3.4 18:23:48 10° S 18:27:39 78° W 18:31:29 10° NNW
Cosmos 2142 Rocket 4.4 18:22:01 10° S 18:28:05 72° E 18:34:11 10° N
Cosmos 1570 Rocket 4.0 18:23:15 10° S 18:28:27 61° ESE 18:33:37 10° NNE
ARIANE 5 R/B 4.5 18:28:41 10° S 18:30:17 11° SSE 18:32:36 10° SE
Cosmos 1602 3.8 18:27:08 10° N 18:30:53 50° E 18:34:37 10° SSE
Cosmos 990 Rocket 4.4 18:26:25 10° N 18:31:13 39° ENE 18:35:59 10° SE
Cosmos 1092 Rocket 4.0 18:25:44 10° N 18:32:03 74° E 18:38:19 10° S
Cosmos 1809 Rocket 4.4 18:26:39 10° N 18:32:37 62° E 18:38:37 10° SSE
SJ 16-02 3.4 18:32:32 10° NW 18:36:22 30° W 18:40:13 10° SSW
Cosmos 1500 Rocket 4.4 18:36:08 10° NNW 18:40:26 53° W 18:44:40 10° S
USA 234 3.3 18:34:30 10° SE 18:40:53 57° NE 18:47:15 10° NNW
Cosmos 1428 Rocket 4.4 18:38:17 10° N 18:44:24 82° E 18:50:36 10° S
OAO 1 Rocket 4.3 18:39:31 10° NW 18:44:49 78° NNE 18:49:14 15° ESE
CZ-4B R/B 3.1 18:40:18 10° SSE 18:45:52 82° ENE 18:51:20 10° N
Cosmos 2279 Rocket 4.1 18:39:55 10° S 18:46:10 82° W 18:52:23 10° N
Aurora 2 Rocket 4.5 18:41:12 10° WNW 18:46:57 37° N 18:51:18 22° NE
Cosmos 1814 Rocket 4.4 18:42:37 10° SSW 18:47:52 65° WNW 18:53:04 10° N
YAOGAN 3 4.4 18:44:40 10° SSE 18:48:59 72° ENE 18:53:19 10° N
Cosmos 1627 Rocket 4.4 18:43:33 10° N 18:49:41 90° ENE 18:55:48 10° S
ARGOS 3.1 18:44:24 10° SSE 18:49:48 70° ENE 18:55:11 10° N
H-2A R/B 2.8 18:45:22 10° S 18:50:38 58° WSW 18:55:48 10° NNW
Cosmos 1805 Rocket 3.6 18:47:00 10° N 18:51:19 77° W 18:55:37 10° S
Cosmos 1515 Rocket 4.1 18:48:03 10° SSE 18:52:10 37° E 18:52:57 34° ENE
SOZ 4.0 18:50:24 10° SW 18:52:55 78° SSW 18:52:55 78° SSW
Cosmos 2208 Rocket 4.0 18:50:33 10° SSW 18:55:49 86° WNW 19:00:46 12° NNE
H-2A R/B 2.1 18:53:55 23° NNE 18:56:41 64° ESE 19:01:07 10° S
CZ-4 R/B 4.3 18:52:46 10° SSE 18:56:53 89° ENE 19:00:59 10° N
Sich 1 3.1 18:58:02 10° N 19:02:19 74° W 19:06:37 10° S
NOSS 3-1 (C) 4.2 18:55:14 10° NNW 19:03:43 66° ENE 19:12:48 10° SE
deb Chang Zheng 4 4.3 18:59:51 10° S 19:04:01 54° WSW 19:08:12 10° NNW
Sakura Rocket 4.2 19:00:04 10° NW 19:04:00 27° N 19:04:00 27° N
SL-08 RB Rocket 3.6 19:00:04 10° SSE 19:04:42 72° ENE 19:09:20 10° N
Meteor 1-14 Rocket 4.4 19:00:54 10° N 19:06:38 54° E 19:12:25 10° SSE
Okean O Rocket 2.1 19:04:28 10° S 19:08:48 60° WSW 19:13:10 10° NNW
USA 32 4.2 19:03:53 10° SSE 19:08:52 47° E 19:09:13 46° ENE
Cosmos 1898 Rocket 3.3 19:04:56 10° N 19:10:08 76° ENE 19:15:17 10° SSE
X-37B 2.1 19:11:10 10° SW 19:12:45 29° SW 19:12:45 29° SW
Fengyun 1C 4.5 19:10:31 10° SSE 19:15:54 75° ENE 19:21:19 10° N
APEX 3.6 19:10:49 10° SSW 19:16:18 82° ESE 19:17:06 61° NNE
Cosmos 44 2.8 19:11:57 10° NNW 19:16:13 75° NE 19:16:13 75° NE
YAOGAN 1 2.8 19:12:11 10° SSE 19:15:29 50° SE 19:15:29 50° SE
Centaur AC-42 4.3 19:12:12 10° W 19:17:34 50° S 19:49:41 10° ESE
Centaur AC-42 4.3 19:12:13 10° W 19:17:34 50° S 19:49:41 10° ESE
CZ-4 R/B 2.5 19:19:47 10° SSE 19:22:15 35° SSE 19:22:15 35° SSE
Meteor 2-16 Rocket 4.4 19:19:57 10° N 19:26:03 86° W 19:32:11 10° S
USA 215 4.2 19:26:44 29° SE 19:26:44 29° SE 19:31:49 10° S
Meteor 1-27 Rocket 3.5 19:25:59 10° S 19:31:36 79° E 19:31:49 77° ENE
SWIFT 4.0 19:31:41 10° WNW 19:34:03 27° NW 19:34:03 27° NW
GPS 2-15 Rocket1 4.4 19:39:36 10° W 19:42:33 35° WNW 19:42:33 35° WNW
CZ-2C R/B 3.9 19:51:33 10° WNW 19:52:37 15° WNW 19:52:37 15° WNW
Cosmos 1937 Rocket 4.4 19:52:45 10° NNW 19:57:48 45° WSW 20:02:48 10° S
Atlas Centaur 2 4.1 19:54:39 10° WNW 19:55:01 12° WNW 19:55:01 12° WNW
Cosmos 1697 Rocket 3.3 19:53:53 10° NNW 19:59:17 51° WSW 20:04:42 10° S
Ariane 3 Deb 4.4 19:55:09 10° WSW 20:06:31 38° SSW 20:06:31 38° SSW
CZ-3C R/B 3.6 20:19:00 10° SSW 21:05:57 - ENE 20:20:56 27° S
CZ-3C R/B 3.6 20:19:00 10° SSW 21:05:58 - ENE 20:20:57 27° S
CZ-3C R/B 3.6 20:19:00 10° SSW 20:20:55 27° S 20:20:55 27° S
CZ-3C R/B 3.6 20:19:01 10° SSW 21:05:57 - ENE 20:20:56 27° S
CZ-3C R/B 3.6 20:19:00 10° SSW 21:05:56 - ENE 20:20:56 27° S
